Flag for France Weather past 2 weeks in Mulhouse, France

Now
30 °F

Passing clouds.


Feels Like: 27 °F
Forecast: 36 / 42 °F
Wind: 3 mph from South

Location: Bale-Mulhouse

Current Time: Jan 28, 2015 at 3:14:55 AM

Latest Report: Jan 28, 2015 at 2:30 AM


Visibility: N/A

Pressure: 30.24 "Hg

Humidity: 100%

Dew point: 30 °F

Location of MulhouseLocation

Historic Weather in Mulhouse — Graph

°F

Mulhouse temperature yesterday

Maximum temperature yesterday: 39 °F (at 1:30 PM)
Minimum temperature yesterday: 34 °F (at 12:00 AM)
Average temperature yesterday: 36 °F

Past Weeks' High & Low Weather Summary

 TemperatureHumidityPressure
High61 °F (Jan 13, 3:00 PM)100% (Jan 16, 10:30 AM)30.45 "Hg (Jan 16, 10:30 AM)
Low27 °F (Jan 18, 4:30 AM)36% (Jan 13, 3:00 PM)29.71 "Hg (Jan 16, 2:30 PM)
Average37 °F88%30.02 "Hg
* Reported Jan 13 2:00 AM — Jan 28 2:00 AM, Mulhouse, Weather by CustomWeather, © 2014

Note: Actual official high and low records may vary slightly from our data, if they occured in-between our weather recording intervals... More about our weather records

Advertising

Mulhouse weather history for previous 24 hours

 ConditionsComfort  
Time TempWeatherWind HumidityBarometerVisibility
2:00 AM
Jan 28
30 °FClear.2 mph93%30.24 "HgN/A
1:30 AM32 °FClear.3 mph87%30.24 "HgN/A
1:00 AM32 °FClear.2 mph93%30.24 "HgN/A
12:30 AM32 °FClear.1 mph93%30.24 "HgN/A
12:00 AM32 °FClear.1 mph93%30.24 "Hg10 mi
11:30 PM
Jan 27
34 °FClear.2 mph93%30.24 "Hg10 mi
11:00 PM34 °FClear.2 mph93%30.24 "Hg10 mi
10:30 PM34 °FPartly cloudy.3 mph93%30.24 "HgN/A
10:00 PM36 °FPassing clouds.2 mph87%30.27 "HgN/A
9:30 PM36 °FPartly cloudy.3 mph87%30.27 "HgN/A
9:00 PM36 °FPartly cloudy.3 mph87%30.27 "HgN/A
8:30 PM36 °FPassing clouds.2 mph87%30.27 "HgN/A
8:00 PM36 °FPassing clouds.7 mph87%30.27 "HgN/A
7:30 PM36 °FPassing clouds.9 mph87%30.27 "HgN/A
7:00 PM36 °FPartly cloudy.10 mph87%30.24 "HgN/A
6:30 PM36 °FPassing clouds.9 mph87%30.24 "HgN/A
6:00 PM37 °FClear.9 mph81%30.24 "Hg10 mi
5:00 PM37 °FBroken clouds.8 mph87%30.24 "HgN/A
4:30 PM37 °FPartly sunny.8 mph87%30.21 "HgN/A
4:00 PM39 °FBroken clouds.6 mph81%30.24 "HgN/A
3:30 PM39 °FBroken clouds.6 mph81%30.24 "HgN/A
3:00 PM39 °FPartly sunny.5 mph81%30.24 "HgN/A
2:30 PM39 °FBroken clouds.6 mph81%30.24 "HgN/A
2:00 PM39 °FBroken clouds.5 mph81%30.24 "HgN/A
1:30 PM39 °FBroken clouds.3 mph81%30.24 "HgN/A
1:00 PM37 °FBroken clouds.5 mph87%30.27 "HgN/A
12:30 PM37 °FPartly sunny.No wind87%30.27 "HgN/A
12:00 PM37 °FPartly sunny.No wind87%30.27 "HgN/A
11:30 AM36 °FPartly sunny.5 mph93%30.27 "HgN/A
11:00 AM36 °FPartly sunny.2 mph93%30.27 "HgN/A
10:30 AM36 °FSunny.3 mph93%30.27 "Hg10 mi
10:00 AM34 °FPartly sunny.2 mph93%30.24 "HgN/A
9:30 AM34 °FBroken clouds.3 mph93%30.24 "HgN/A
9:00 AM34 °FBroken clouds.3 mph93%30.24 "HgN/A
8:30 AM34 °FPartly sunny.2 mph100%30.24 "HgN/A
8:00 AM34 °FPassing clouds.2 mph93%30.24 "HgN/A
7:30 AM34 °FPassing clouds.1 mph100%30.24 "HgN/A
7:00 AM36 °FPartly cloudy.3 mph93%30.24 "HgN/A
6:30 AM36 °FPartly cloudy.2 mph93%30.21 "HgN/A
6:00 AM34 °FPartly cloudy.5 mph93%30.21 "HgN/A
5:30 AM36 °FPartly cloudy.3 mph93%30.21 "HgN/A
5:00 AM36 °FPartly cloudy.6 mph93%30.21 "HgN/A
4:30 AM36 °FPassing clouds.10 mph93%30.18 "HgN/A
4:00 AM36 °FPassing clouds.13 mph93%30.18 "HgN/A
3:30 AM36 °FMostly cloudy.14 mph93%30.18 "HgN/A
3:00 AM36 °FPartly cloudy.12 mph93%30.18 "HgN/A
Weather by CustomWeather, © 2014

See weather overviewHow to use our weather pages